,,,PA_Meas_PMT16A,,PR_Meas_QMR101_102,,RH_Meas_QMH101,,SR_Meas_QMS101,,TA_Meas_QMH101,,GenWind,,GenWind,
date,time,status,PA,status,PR,status,RH,status,SR,status,TA,status,DirAvg,status,SpdAvg,
2011-08-04, 00:00:05,VALID,1000.74,VALID,0,VALID,81.0266,VALID,0,VALID,24.5794,VALID,141,VALID,1.12266,
2011-08-04, 00:01:05,VALID,1000.73,VALID,0,VALID,81.1792,VALID,0,VALID,24.5385,VALID,136,VALID,1.09844,
2011-08-04, 00:02:05,VALID,1000.72,VALID,0,VALID,81.1639,VALID,0,VALID,24.5599,VALID,125,VALID,1.51875,
2011-08-04, 00:03:05,VALID,1000.72,VALID,0,VALID,81.1181,VALID,0,VALID,24.558,VALID,121,VALID,1.77148,
2011-08-04, 00:04:05,VALID,1000.69,VALID,0,VALID,80.996,VALID,0,VALID,24.5989,VALID,116,VALID,1.19648,
2011-08-04, 00:05:05,VALID,1000.71,VALID,0,VALID,80.9503,VALID,0,VALID,24.5989,VALID,129,VALID,1.3582,
2011-08-04, 00:06:05,VALID,1000.68,VALID,0,VALID,80.7366,VALID,0,VALID,24.5794,VALID,127,VALID,1.36523,
2011-08-04, 00:07:05,VALID,1000.65,VALID,0,VALID,80.4467,VALID,0,VALID,24.5775,VALID,137,VALID,1.76719,
2011-08-04, 00:08:05,VALID,1000.6,VALID,0,VALID,80.1797,VALID,0,VALID,24.6184,VALID,139,VALID,1.65,
2011-08-04, 00:09:05,VALID,1000.61,VALID,0,VALID,80.0347,VALID,0,VALID,24.6361,VALID,141,VALID,2.06641,
2011-08-04, 00:10:05,VALID,1000.56,VALID,0,VALID,79.905,VALID,0,VALID,24.6361,VALID,150,VALID,1.80117,
2011-08-04, 00:11:05,VALID,1000.56,VALID,0,VALID,79.7906,VALID,0,VALID,24.6556,VALID,146,VALID,1.60859,
2011-08-04, 00:12:05,VALID,1000.54,VALID,0,VALID,79.7295,VALID,0,VALID,24.6556,VALID,150,VALID,1.43281,
2011-08-04, 00:13:05,VALID,1000.58,VALID,0,VALID,79.7677,VALID,0,VALID,24.6575,VALID,144,VALID,1.46133,
2011-08-04, 00:14:05,VALID,1000.59,VALID,0,VALID,79.4778,VALID,0,VALID,24.6361,VALID,146,VALID,1.48359,
2011-08-04, 00:15:05,VALID,1000.62,VALID,0,VALID,79.3404,VALID,0,VALID,24.6751,VALID,147,VALID,1.16328,
2011-08-04, 00:16:05,VALID,1000.62,VALID,0,VALID,79.0886,VALID,0,VALID,24.6965,VALID,150,VALID,1.06172,
2011-08-04, 00:17:05,VALID,1000.63,VALID,0,VALID,78.9055,VALID,0,VALID,24.677,VALID,163,VALID,0.906641,
2011-08-04, 00:18:05,VALID,1000.65,VALID,0,VALID,78.8674,VALID,0,VALID,24.6751,VALID,147,VALID,0.853906,
2011-08-04, 00:19:05,VALID,1000.66,VALID,0,VALID,78.7529,VALID,0,VALID,24.6965,VALID,145,VALID,1.0125,
2011-08-04, 00:20:05,VALID,1000.68,VALID,0,VALID,78.6919,VALID,0,VALID,24.677,VALID,145,VALID,0.735547,
2011-08-04, 00:21:05,VALID,1000.67,VALID,0,VALID,78.6156,VALID,0,VALID,24.6751,VALID,145,VALID,0.675,
2011-08-04, 00:22:05,VALID,1000.68,VALID,0,VALID,78.669,VALID,0,VALID,24.677,VALID,148,VALID,0.580859,
2011-08-04, 00:23:05,VALID,1000.69,VALID,0,VALID,78.7911,VALID,0,VALID,24.677,VALID,148,VALID,0.38125,
2011-08-04, 00:24:05,VALID,1000.7,VALID,0,VALID,78.8369,VALID,0,VALID,24.6556,VALID,148,VALID,0.334766,
2011-08-04, 00:25:05,VALID,1000.69,VALID,0,VALID,78.7987,VALID,0,VALID,24.677,VALID,148,VALID,0.409766,
2011-08-04, 00:26:05,VALID,1000.69,VALID,0,VALID,78.6461,VALID,0,VALID,24.6751,VALID,148,VALID,0.414844,
2011-08-04, 00:27:04,VALID,1000.64,VALID,0,VALID,78.6538,VALID,0,VALID,24.6965,VALID,148,VALID,0.415234,
2011-08-04, 00:28:04,VALID,1000.64,VALID,0,VALID,78.6461,VALID,0,VALID,24.6556,VALID,148,VALID,0.567969,
2011-08-04, 00:29:04,VALID,1000.65,VALID,0,VALID,78.4478,VALID,0,VALID,24.6965,VALID,148,VALID,0.532812,
2011-08-04, 00:30:04,VALID,1000.66,VALID,0,VALID,78.3486,VALID,0,VALID,24.6965,VALID,148,VALID,0.657031,
2011-08-04, 00:31:04,VALID,1000.65,VALID,0,VALID,78.3638,VALID,0,VALID,24.6751,VALID,148,VALID,0.566406,
2011-08-04, 00:32:04,VALID,1000.63,VALID,0,VALID,78.1883,VALID,0,VALID,24.6751,VALID,148,VALID,0.482031,
2011-08-04, 00:33:04,VALID,1000.69,VALID,0,VALID,78.1731,VALID,0.112286,VALID,24.6965,VALID,148,VALID,0.401563,
2011-08-04, 00:34:04,VALID,1000.67,VALID,0,VALID,78.2494,VALID,0.112286,VALID,24.6751,VALID,148,VALID,0.277734,
2011-08-04, 00:35:04,VALID,1000.68,VALID,0,VALID,78.3028,VALID,0,VALID,24.6751,VALID,148,VALID,0.175391,
2011-08-04, 00:36:04,VALID,1000.67,VALID,0,VALID,78.3257,VALID,0,VALID,24.6361,VALID,148,VALID,0.227344,
2011-08-04, 00:37:04,VALID,1000.69,VALID,0,VALID,78.3257,VALID,0,VALID,24.638,VALID,148,VALID,0.284375,
2011-08-04, 00:38:04,VALID,1000.68,VALID,0,VALID,78.4096,VALID,0,VALID,24.6184,VALID,148,VALID,0.316797,
2011-08-04, 00:39:04,VALID,1000.65,VALID,0,VALID,78.6843,VALID,0,VALID,24.5385,VALID,148,VALID,0.459375,
2011-08-04, 00:40:04,VALID,1000.66,VALID,0,VALID,78.9284,VALID,0,VALID,24.48,VALID,148,VALID,0.392188,
2011-08-04, 00:41:04,VALID,1000.62,VALID,0,VALID,79.2336,VALID,0.112286,VALID,24.4604,VALID,148,VALID,0.322266,
2011-08-04, 00:42:04,VALID,1000.55,VALID,0,VALID,79.4472,VALID,0.112286,VALID,24.4019,VALID,148,VALID,0.287109,
2011-08-04, 00:43:04,VALID,1000.58,VALID,0,VALID,79.5006,VALID,0.112286,VALID,24.4037,VALID,148,VALID,0.192969,
2011-08-04, 00:44:04,VALID,1000.59,VALID,0,VALID,79.8516,VALID,0.112286,VALID,24.3433,VALID,148,VALID,0.0996094,
2011-08-04, 00:45:04,VALID,1000.59,VALID,0,VALID,80.4238,VALID,0,VALID,24.2866,VALID,148,VALID,0.399609,
2011-08-04, 00:46:04,VALID,1000.63,VALID,0,VALID,80.996,VALID,0,VALID,24.2281,VALID,148,VALID,0.544922,
2011-08-04, 00:47:04,VALID,1000.62,VALID,0,VALID,81.5835,VALID,0,VALID,24.15,VALID,148,VALID,0.615625,
2011-08-04, 00:48:04,VALID,1000.63,VALID,0,VALID,82.1405,VALID,0,VALID,24.0525,VALID,148,VALID,0.552344,
2011-08-04, 00:49:04,VALID,1000.63,VALID,0,VALID,82.9263,VALID,0,VALID,23.9549,VALID,148,VALID,0.64375,
2011-08-04, 00:50:04,VALID,1000.65,VALID,0,VALID,83.5825,VALID,0,VALID,23.8963,VALID,148,VALID,0.748828,
2011-08-04, 00:51:04,VALID,1000.62,VALID,0,VALID,84.4523,VALID,0,VALID,23.8378,VALID,332,VALID,0.871094,
2011-08-04, 00:52:04,VALID,1000.59,VALID,0,VALID,84.8948,VALID,0,VALID,23.7988,VALID,332,VALID,0.823438,
2011-08-04, 00:53:04,VALID,1000.62,VALID,0,VALID,85.4899,VALID,0,VALID,23.7402,VALID,332,VALID,0.840234,
2011-08-04, 00:54:04,VALID,1000.61,VALID,0,VALID,85.8103,VALID,0,VALID,23.6817,VALID,332,VALID,0.860937,
2011-08-04, 00:55:04,VALID,1000.63,VALID,0,VALID,86.1079,VALID,0,VALID,23.6232,VALID,332,VALID,0.96875,
2011-08-04, 00:56:04,VALID,1000.64,VALID,0,VALID,86.2681,VALID,0,VALID,23.5841,VALID,332,VALID,0.848047,
2011-08-04, 00:57:04,VALID,1000.65,VALID,0,VALID,86.4817,VALID,0,VALID,23.5451,VALID,332,VALID,0.766406,
2011-08-04, 00:58:04,VALID,1000.62,VALID,0,VALID,86.6954,VALID,0,VALID,23.5274,VALID,332,VALID,0.916406,
2011-08-04, 00:59:04,VALID,1000.63,VALID,0,VALID,86.6801,VALID,0,VALID,23.4671,VALID,332,VALID,0.941016,
2011-08-04, 01:00:04,VALID,1000.63,VALID,0,VALID,86.6877,VALID,0,VALID,23.428,VALID,332,VALID,0.682813,
2011-08-04, 01:01:04,VALID,1000.64,VALID,0,VALID,86.6725,VALID,0,VALID,23.4085,VALID,332,VALID,0.461328,
2011-08-04, 01:02:04,VALID,1000.6,VALID,0,VALID,86.6496,VALID,0,VALID,23.4085,VALID,332,VALID,0.414063,
2011-08-04, 01:03:04,VALID,1000.64,VALID,0,VALID,86.6343,VALID,0,VALID,23.4085,VALID,332,VALID,0.273828,
2011-08-04, 01:04:04,VALID,1000.6,VALID,0,VALID,86.5962,VALID,0,VALID,23.4085,VALID,332,VALID,0.320703,
2011-08-04, 01:05:04,VALID,1000.57,VALID,0,VALID,86.5886,VALID,0,VALID,23.4085,VALID,332,VALID,0.166406,
2011-08-04, 01:06:04,VALID,1000.57,VALID,0,VALID,86.497,VALID,0,VALID,23.4103,VALID,332,VALID,0,
2011-08-04, 01:07:04,VALID,1000.57,VALID,0,VALID,86.4665,VALID,0,VALID,23.389,VALID,332,VALID,0,
2011-08-04, 01:08:04,VALID,1000.55,VALID,0,VALID,86.5504,VALID,0,VALID,23.3695,VALID,332,VALID,0,
2011-08-04, 01:09:04,VALID,1000.56,VALID,0,VALID,86.4665,VALID,0,VALID,23.3695,VALID,332,VALID,0,
2011-08-04, 01:10:04,VALID,1000.54,VALID,0,VALID,86.3292,VALID,0,VALID,23.389,VALID,332,VALID,0,
2011-08-04, 01:11:04,VALID,1000.51,VALID,0,VALID,86.1766,VALID,0,VALID,23.4085,VALID,332,VALID,0,
2011-08-04, 01:12:04,VALID,1000.5,VALID,0,VALID,86.024,VALID,0,VALID,23.4493,VALID,332,VALID,0.241406,
2011-08-04, 01:13:04,VALID,1000.53,VALID,0,VALID,85.7951,VALID,0,VALID,23.4884,VALID,332,VALID,0.333594,
2011-08-04, 01:14:04,VALID,1000.54,VALID,0,VALID,85.467,VALID,0,VALID,23.5274,VALID,332,VALID,0.203906,
2011-08-04, 01:15:04,VALID,1000.51,VALID,0,VALID,85.3602,VALID,0.112286,VALID,23.5646,VALID,332,VALID,0.488672,
2011-08-04, 01:16:04,VALID,1000.49,VALID,0,VALID,85.5204,VALID,0.112286,VALID,23.5823,VALID,332,VALID,0.267969,
2011-08-04, 01:17:04,VALID,1000.48,VALID,0,VALID,85.3602,VALID,0,VALID,23.6214,VALID,332,VALID,0.532031,
2011-08-04, 01:18:04,VALID,1000.51,VALID,0,VALID,85.055,VALID,0,VALID,23.6799,VALID,332,VALID,0.564844,
2011-08-04, 01:19:04,VALID,1000.48,VALID,0,VALID,84.8643,VALID,0.112286,VALID,23.6994,VALID,332,VALID,0.556641,
2011-08-04, 01:20:04,VALID,1000.47,VALID,0,VALID,84.8337,VALID,0,VALID,23.7012,VALID,332,VALID,0.450781,
2011-08-04, 01:21:04,VALID,1000.46,VALID,0,VALID,84.994,VALID,0.112286,VALID,23.7012,VALID,332,VALID,0.469531,
2011-08-04, 01:22:04,VALID,1000.46,VALID,0,VALID,85.0626,VALID,0,VALID,23.6817,VALID,332,VALID,0.554297,
2011-08-04, 01:23:04,VALID,1000.44,VALID,0,VALID,85.5128,VALID,0,VALID,23.6817,VALID,74,VALID,0.824609,
2011-08-04, 01:24:04,VALID,1000.42,VALID,0,VALID,85.9324,VALID,0.112286,VALID,23.6622,VALID,103,VALID,1.2832,
2011-08-04, 01:25:04,VALID,1000.4,VALID,0,VALID,86.1537,VALID,0,VALID,23.6409,VALID,110,VALID,1.19297,
2011-08-04, 01:26:04,VALID,1000.36,VALID,0,VALID,86.6649,VALID,0.112286,VALID,23.6622,VALID,114,VALID,1.17617,
2011-08-04, 01:27:04,VALID,1000.37,VALID,0,VALID,86.9929,VALID,0,VALID,23.6622,VALID,119,VALID,1.00508,
2011-08-04, 01:28:04,VALID,1000.32,VALID,0,VALID,87.0082,VALID,0,VALID,23.6409,VALID,119,VALID,0.871484,
2011-08-04, 01:29:04,VALID,1000.33,VALID,0,VALID,87.0311,VALID,0,VALID,23.6214,VALID,119,VALID,1.075,
2011-08-04, 01:30:04,VALID,1000.31,VALID,0,VALID,87.1226,VALID,0,VALID,23.6622,VALID,119,VALID,0.901563,
2011-08-04, 01:31:04,VALID,1000.32,VALID,0,VALID,87.0082,VALID,0,VALID,23.6409,VALID,119,VALID,0.960156,
2011-08-04, 01:32:04,VALID,1000.29,VALID,0,VALID,86.4512,VALID,0,VALID,23.6622,VALID,119,VALID,0.792188,
2011-08-04, 01:33:04,VALID,1000.26,VALID,0,VALID,86.0926,VALID,0,VALID,23.6622,VALID,119,VALID,0.875781,
2011-08-04, 01:34:04,VALID,1000.23,VALID,0,VALID,85.8943,VALID,0,VALID,23.6817,VALID,119,VALID,0.936328,
2011-08-04, 01:35:04,VALID,1000.22,VALID,0,VALID,85.6349,VALID,0,VALID,23.6817,VALID,119,VALID,0.985547,
2011-08-04, 01:36:04,VALID,1000.17,VALID,0,VALID,85.4441,VALID,0,VALID,23.7597,VALID,119,VALID,0.953125,
2011-08-04, 01:37:04,VALID,1000.16,VALID,0,VALID,85.2457,VALID,0,VALID,23.8378,VALID,119,VALID,0.901172,
2011-08-04, 01:38:04,VALID,1000.11,VALID,0,VALID,84.8948,VALID,0,VALID,23.8963,VALID,119,VALID,0.875781,
2011-08-04, 01:39:04,VALID,1000.07,VALID,0,VALID,84.292,VALID,0,VALID,23.9159,VALID,131,VALID,0.809766,
2011-08-04, 01:40:04,VALID,1000.06,VALID,0,VALID,83.9182,VALID,0,VALID,23.9354,VALID,143,VALID,0.860156,
2011-08-04, 01:41:04,VALID,1000.05,VALID,0,VALID,83.7122,VALID,0,VALID,23.9744,VALID,143,VALID,0.674609,
2011-08-04, 01:42:04,VALID,1000.03,VALID,0,VALID,83.6664,VALID,0,VALID,23.9939,VALID,143,VALID,0.565625,
2011-08-04, 01:43:04,VALID,1000.04,VALID,0,VALID,83.7351,VALID,0,VALID,23.9939,VALID,143,VALID,0.460156,
2011-08-04, 01:44:04,VALID,1000.03,VALID,0,VALID,83.8572,VALID,0,VALID,23.9744,VALID,143,VALID,0.379297,
2011-08-04, 01:45:04,VALID,1000.05,VALID,0,VALID,83.7198,VALID,0,VALID,23.9939,VALID,143,VALID,0.180078,
2011-08-04, 01:46:04,VALID,1000.01,VALID,0,VALID,83.6359,VALID,0,VALID,23.9549,VALID,143,VALID,0.298047,
2011-08-04, 01:47:04,VALID,999.98,VALID,0,VALID,83.9792,VALID,0,VALID,23.9159,VALID,143,VALID,0.588281,
2011-08-04, 01:48:04,VALID,999.972,VALID,0,VALID,84.0937,VALID,0,VALID,23.8768,VALID,143,VALID,0.508984,
2011-08-04, 01:49:04,VALID,999.975,VALID,0,VALID,84.0784,VALID,0,VALID,23.8768,VALID,143,VALID,0.5375,
2011-08-04, 01:50:04,VALID,999.972,VALID,0,VALID,84.0021,VALID,0,VALID,23.8768,VALID,43,VALID,0.844531,
2011-08-04, 01:51:04,VALID,999.95,VALID,0,VALID,84.704,VALID,0,VALID,23.8573,VALID,27,VALID,0.944141,
2011-08-04, 01:52:04,VALID,999.919,VALID,0,VALID,84.91,VALID,0,VALID,23.8378,VALID,27,VALID,0.530078,
2011-08-04, 01:53:04,VALID,999.942,VALID,0,VALID,84.8872,VALID,0.112286,VALID,23.7988,VALID,27,VALID,0.348437,
2011-08-04, 01:54:04,VALID,999.918,VALID,0,VALID,84.8261,VALID,0,VALID,23.7597,VALID,27,VALID,0.522656,
2011-08-04, 01:55:04,VALID,999.917,VALID,0,VALID,84.6888,VALID,0,VALID,23.6817,VALID,27,VALID,0.5875,
2011-08-04, 01:56:04,VALID,999.942,VALID,0,VALID,85.1694,VALID,0,VALID,23.6036,VALID,26,VALID,0.723828,
2011-08-04, 01:57:04,VALID,999.942,VALID,0,VALID,85.4212,VALID,0.112286,VALID,23.5451,VALID,2,VALID,0.982813,
2011-08-04, 01:58:04,VALID,999.916,VALID,0,VALID,85.94,VALID,0,VALID,23.5061,VALID,345,VALID,1.07539,
2011-08-04, 01:59:04,VALID,999.889,VALID,0,VALID,85.94,VALID,0,VALID,23.5451,VALID,345,VALID,0.967188,
2011-08-04, 02:00:04,VALID,999.868,VALID,0,VALID,85.6806,VALID,0,VALID,23.5646,VALID,11,VALID,1.01094,
2011-08-04, 02:01:04,VALID,999.841,VALID,0,VALID,85.5967,VALID,0,VALID,23.6019,VALID,11,VALID,0.957031,
2011-08-04, 02:02:04,VALID,999.829,VALID,0,VALID,85.467,VALID,0,VALID,23.6214,VALID,11,VALID,0.908594,
2011-08-04, 02:03:04,VALID,999.858,VALID,0,VALID,85.3983,VALID,0,VALID,23.6817,VALID,11,VALID,0.962891,
2011-08-04, 02:04:04,VALID,999.826,VALID,0,VALID,85.2,VALID,0,VALID,23.6817,VALID,11,VALID,0.689453,
2011-08-04, 02:05:04,VALID,999.836,VALID,0,VALID,85.116,VALID,0,VALID,23.6427,VALID,11,VALID,0.642969,
2011-08-04, 02:06:04,VALID,999.858,VALID,0,VALID,85.055,VALID,0,VALID,23.5841,VALID,11,VALID,0.607813,
2011-08-04, 02:07:04,VALID,999.864,VALID,0,VALID,85.2,VALID,0,VALID,23.5061,VALID,11,VALID,0.689844,
2011-08-04, 02:08:04,VALID,999.878,VALID,0,VALID,85.6043,VALID,0,VALID,23.4884,VALID,11,VALID,0.891797,
2011-08-04, 02:09:04,VALID,999.882,VALID,0,VALID,85.8103,VALID,0,VALID,23.4866,VALID,325,VALID,0.764844,
2011-08-04, 02:10:04,VALID,999.886,VALID,0,VALID,86.0621,VALID,0,VALID,23.4671,VALID,325,VALID,0.649609,
2011-08-04, 02:11:04,VALID,999.893,VALID,0,VALID,86.2605,VALID,0,VALID,23.4475,VALID,325,VALID,0.6125,
2011-08-04, 02:12:04,VALID,999.855,VALID,0,VALID,86.3749,VALID,0,VALID,23.4866,VALID,325,VALID,0.671484,
2011-08-04, 02:13:04,VALID,999.848,VALID,0,VALID,86.4589,VALID,0,VALID,23.4671,VALID,325,VALID,0.635938,
2011-08-04, 02:14:04,VALID,999.858,VALID,0,VALID,86.5657,VALID,0,VALID,23.4263,VALID,325,VALID,0.622266,
2011-08-04, 02:15:04,VALID,999.851,VALID,0,VALID,86.7259,VALID,0,VALID,23.4085,VALID,325,VALID,0.681641,
2011-08-04, 02:16:04,VALID,999.841,VALID,0,VALID,86.9014,VALID,0,VALID,23.3677,VALID,325,VALID,0.71875,
2011-08-04, 02:17:04,VALID,999.823,VALID,0,VALID,86.97,VALID,0,VALID,23.389,VALID,313,VALID,0.770703,
2011-08-04, 02:18:04,VALID,999.835,VALID,0,VALID,86.9472,VALID,0,VALID,23.389,VALID,282,VALID,0.677344,
2011-08-04, 02:19:04,VALID,999.808,VALID,0,VALID,86.9472,VALID,0,VALID,23.389,VALID,282,VALID,0.704687,
2011-08-04, 02:20:04,VALID,999.788,VALID,0,VALID,86.9777,VALID,0,VALID,23.389,VALID,282,VALID,0.492188,
2011-08-04, 02:21:04,VALID,999.778,VALID,0,VALID,86.97,VALID,0,VALID,23.389,VALID,282,VALID,0.435547,
2011-08-04, 02:22:04,VALID,999.712,VALID,0,VALID,86.9777,VALID,0,VALID,23.3695,VALID,282,VALID,0.361328,
2011-08-04, 02:23:04,VALID,999.682,VALID,0,VALID,86.9472,VALID,0,VALID,23.3677,VALID,282,VALID,0.186328,
2011-08-04, 02:24:04,VALID,999.67,VALID,0,VALID,86.9243,VALID,0,VALID,23.3482,VALID,282,VALID,0,
2011-08-04, 02:25:04,VALID,999.638,VALID,0,VALID,87.0082,VALID,0,VALID,23.3287,VALID,282,VALID,0.270703,
2011-08-04, 02:26:04,VALID,999.673,VALID,0,VALID,86.9853,VALID,0,VALID,23.3695,VALID,282,VALID,0.588281,
2011-08-04, 02:27:04,VALID,999.665,VALID,0,VALID,87.0006,VALID,0,VALID,23.3482,VALID,282,VALID,0.865625,
2011-08-04, 02:28:04,VALID,999.681,VALID,0,VALID,87.1074,VALID,0,VALID,23.3305,VALID,282,VALID,0.926172,
2011-08-04, 02:29:04,VALID,999.639,VALID,0,VALID,87.2142,VALID,0,VALID,23.2915,VALID,281,VALID,0.952734,
2011-08-04, 02:30:04,VALID,999.618,VALID,0,VALID,87.3286,VALID,0,VALID,23.2915,VALID,273,VALID,0.780469,
2011-08-04, 02:31:04,VALID,999.586,VALID,0,VALID,87.321,VALID,0,VALID,23.2915,VALID,272,VALID,0.54375,
2011-08-04, 02:32:04,VALID,999.559,VALID,0,VALID,87.382,VALID,0,VALID,23.2915,VALID,272,VALID,0.385938,
2011-08-04, 02:33:04,VALID,999.527,VALID,0,VALID,87.3897,VALID,0,VALID,23.2524,VALID,272,VALID,0.224219,
2011-08-04, 02:34:04,VALID,999.526,VALID,0,VALID,87.4049,VALID,0,VALID,23.2524,VALID,272,VALID,0.142188,
2011-08-04, 02:35:04,VALID,999.517,VALID,0,VALID,87.4126,VALID,0,VALID,23.2329,VALID,272,VALID,0.0460938,
2011-08-04, 02:36:04,VALID,999.494,VALID,0,VALID,87.3973,VALID,0,VALID,23.2134,VALID,272,VALID,0.232422,
2011-08-04, 02:37:04,VALID,999.513,VALID,0,VALID,87.3744,VALID,0,VALID,23.2134,VALID,272,VALID,0,
2011-08-04, 02:38:04,VALID,999.485,VALID,0,VALID,87.4049,VALID,0,VALID,23.2134,VALID,272,VALID,0,
2011-08-04, 02:39:04,VALID,999.49,VALID,0,VALID,87.1226,VALID,0,VALID,23.1939,VALID,272,VALID,0.145703,
2011-08-04, 02:40:04,VALID,999.485,VALID,0,VALID,87.1379,VALID,0,VALID,23.2134,VALID,272,VALID,0,
2011-08-04, 02:41:04,VALID,999.515,VALID,0,VALID,87.0921,VALID,0,VALID,23.1939,VALID,272,VALID,0.197656,
2011-08-04, 02:42:04,VALID,999.48,VALID,0,VALID,86.8709,VALID,0,VALID,23.1744,VALID,272,VALID,0.0765625,
2011-08-04, 02:43:04,VALID,999.456,VALID,0,VALID,87.0158,VALID,0,VALID,23.1744,VALID,204,VALID,0.585938,
2011-08-04, 02:44:04,VALID,999.391,VALID,0,VALID,86.909,VALID,0,VALID,23.1549,VALID,204,VALID,0.478906,
2011-08-04, 02:45:04,VALID,999.363,VALID,0,VALID,87.0463,VALID,0,VALID,23.1957,VALID,192,VALID,0.941016,
2011-08-04, 02:46:04,VALID,999.315,VALID,0,VALID,87.0158,VALID,0,VALID,23.2152,VALID,164,VALID,1.5293,
2011-08-04, 02:47:04,VALID,999.277,VALID,0,VALID,86.7946,VALID,0,VALID,23.2542,VALID,154,VALID,1.80586,
2011-08-04, 02:48:04,VALID,999.264,VALID,0,VALID,86.7335,VALID,0,VALID,23.2932,VALID,160,VALID,1.78125,
2011-08-04, 02:49:04,VALID,999.242,VALID,0,VALID,86.5733,VALID,0,VALID,23.3323,VALID,172,VALID,1.55078,
2011-08-04, 02:50:04,VALID,999.228,VALID,0,VALID,86.6725,VALID,0,VALID,23.3713,VALID,172,VALID,1.50234,
2011-08-04, 02:51:04,VALID,999.152,VALID,0,VALID,86.4894,VALID,0,VALID,23.4103,VALID,172,VALID,1.43711,
2011-08-04, 02:52:04,VALID,999.151,VALID,0,VALID,86.4283,VALID,0,VALID,23.4493,VALID,172,VALID,1.22344,
2011-08-04, 02:53:04,VALID,999.134,VALID,0,VALID,86.1766,VALID,0,VALID,23.4688,VALID,170,VALID,1.54922,
2011-08-04, 02:54:04,VALID,999.109,VALID,0,VALID,85.9706,VALID,0,VALID,23.4493,VALID,161,VALID,1.65859,
2011-08-04, 02:55:04,VALID,999.07,VALID,0,VALID,86.0469,VALID,0,VALID,23.4298,VALID,161,VALID,1.53203,
2011-08-04, 02:56:04,VALID,999.067,VALID,0,VALID,86.0087,VALID,0,VALID,23.4103,VALID,161,VALID,1.39922,
2011-08-04, 02:57:04,VALID,999.059,VALID,0,VALID,85.9782,VALID,0,VALID,23.3713,VALID,161,VALID,1.27539,
2011-08-04, 02:58:04,VALID,999.049,VALID,0,VALID,86.2605,VALID,0,VALID,23.3323,VALID,161,VALID,1.06055,
2011-08-04, 02:59:04,VALID,999.048,VALID,0,VALID,86.436,VALID,0,VALID,23.2932,VALID,161,VALID,1.18711,
2011-08-04, 03:00:04,VALID,999.071,VALID,0,VALID,86.5886,VALID,0,VALID,23.2329,VALID,161,VALID,0.994141,
2011-08-04, 03:01:04,VALID,999.108,VALID,0,VALID,86.5733,VALID,0,VALID,23.1939,VALID,161,VALID,0.838281,
2011-08-04, 03:02:04,VALID,999.106,VALID,0,VALID,86.7183,VALID,0,VALID,23.1566,VALID,161,VALID,0.534766,
2011-08-04, 03:03:04,VALID,999.115,VALID,0,VALID,87.0082,VALID,0,VALID,23.1566,VALID,161,VALID,0.545313,
2011-08-04, 03:04:04,VALID,999.145,VALID,0,VALID,87.1532,VALID,0,VALID,23.1176,VALID,161,VALID,0.625,
2011-08-04, 03:05:04,VALID,999.129,VALID,0,VALID,87.3439,VALID,0,VALID,23.0981,VALID,161,VALID,0.688672,
2011-08-04, 03:06:04,VALID,999.105,VALID,0,VALID,87.7101,VALID,0,VALID,23.1194,VALID,161,VALID,0.6875,
2011-08-04, 03:07:04,VALID,999.064,VALID,0,VALID,88.0916,VALID,0,VALID,23.1176,VALID,161,VALID,0.664063,
2011-08-04, 03:08:04,VALID,999.082,VALID,0,VALID,88.3205,VALID,0,VALID,23.0981,VALID,161,VALID,0.805078,
2011-08-04, 03:09:04,VALID,999.069,VALID,0,VALID,88.3739,VALID,0,VALID,23.1176,VALID,161,VALID,0.784375,
2011-08-04, 03:10:04,VALID,999.085,VALID,0,VALID,88.5494,VALID,0,VALID,23.0786,VALID,161,VALID,0.755859,
2011-08-04, 03:11:04,VALID,999.077,VALID,0,VALID,88.2366,VALID,0,VALID,23.0396,VALID,60,VALID,1.00273,
2011-08-04, 03:12:04,VALID,999.04,VALID,0,VALID,87.7711,VALID,0,VALID,22.9225,VALID,42,VALID,1.17617,
2011-08-04, 03:13:04,VALID,999.04,VALID,0,VALID,87.7483,VALID,0,VALID,22.8055,VALID,35,VALID,1.01016,
2011-08-04, 03:14:04,VALID,999.085,VALID,0,VALID,87.8169,VALID,0,VALID,22.6689,VALID,35,VALID,0.855469,
2011-08-04, 03:15:04,VALID,999.049,VALID,0,VALID,88.2366,VALID,0,VALID,22.5679,VALID,35,VALID,0.630078,
2011-08-04, 03:16:04,VALID,999.062,VALID,0,VALID,88.6943,VALID,0.112286,VALID,22.5696,VALID,35,VALID,0.194531,
2011-08-04, 03:17:04,VALID,999.053,VALID,0,VALID,89.0148,VALID,0,VALID,22.5696,VALID,35,VALID,0.298438,
2011-08-04, 03:18:04,VALID,999.004,VALID,0,VALID,89.2132,VALID,0,VALID,22.5501,VALID,35,VALID,0.0722656,
2011-08-04, 03:19:04,VALID,999.008,VALID,0,VALID,89.3047,VALID,0,VALID,22.5306,VALID,35,VALID,0,
2011-08-04, 03:20:04,VALID,998.976,VALID,0,VALID,89.4497,VALID,0,VALID,22.5306,VALID,35,VALID,0,
2011-08-04, 03:21:04,VALID,998.964,VALID,0,VALID,89.5565,VALID,0.112286,VALID,22.5094,VALID,35,VALID,0.075,
2011-08-04, 03:22:04,VALID,998.956,VALID,0,VALID,89.6709,VALID,0.112286,VALID,22.5289,VALID,35,VALID,0.917969,
2011-08-04, 03:23:04,VALID,998.958,VALID,0,VALID,89.938,VALID,0.112286,VALID,22.6655,VALID,208,VALID,0.757031,
2011-08-04, 03:24:04,VALID,998.911,VALID,0,VALID,89.8159,VALID,0,VALID,22.724,VALID,208,VALID,0.669922,
2011-08-04, 03:25:04,VALID,998.902,VALID,0,VALID,89.6786,VALID,0.112286,VALID,22.802,VALID,208,VALID,0.650781,
2011-08-04, 03:26:04,VALID,998.91,VALID,0,VALID,89.3963,VALID,0.112286,VALID,22.9013,VALID,208,VALID,0.651172,
2011-08-04, 03:27:04,VALID,998.87,VALID,0,VALID,88.8469,VALID,0.112286,VALID,22.9385,VALID,208,VALID,0.375,
2011-08-04, 03:28:04,VALID,998.898,VALID,0,VALID,88.5341,VALID,0,VALID,23.0361,VALID,208,VALID,0.451953,
2011-08-04, 03:29:04,VALID,998.86,VALID,0,VALID,88.084,VALID,0.112286,VALID,23.0946,VALID,208,VALID,0.133984,
2011-08-04, 03:30:04,VALID,998.834,VALID,0,VALID,87.6186,VALID,0,VALID,23.1159,VALID,208,VALID,0.148438,
2011-08-04, 03:31:04,VALID,998.862,VALID,0,VALID,87.3286,VALID,0,VALID,23.1549,VALID,208,VALID,0.172656,
2011-08-04, 03:32:04,VALID,998.84,VALID,0,VALID,87.0692,VALID,0,VALID,23.1549,VALID,208,VALID,0.246875,
2011-08-04, 03:33:04,VALID,998.839,VALID,0,VALID,86.9243,VALID,0,VALID,23.1744,VALID,208,VALID,0.705469,
2011-08-04, 03:34:04,VALID,998.811,VALID,0,VALID,86.2376,VALID,0,VALID,23.2134,VALID,173,VALID,0.857422,
2011-08-04, 03:35:04,VALID,998.796,VALID,0,VALID,85.9172,VALID,0,VALID,23.1744,VALID,151,VALID,0.996094,
2011-08-04, 03:36:04,VALID,998.808,VALID,0,VALID,86.0316,VALID,0,VALID,23.1762,VALID,151,VALID,0.977734,
2011-08-04, 03:37:04,VALID,998.822,VALID,0,VALID,86.1842,VALID,0,VALID,23.1549,VALID,151,VALID,0.867969,
2011-08-04, 03:38:04,VALID,998.813,VALID,0,VALID,86.2757,VALID,0,VALID,23.1957,VALID,161,VALID,0.982422,
2011-08-04, 03:39:04,VALID,998.769,VALID,0,VALID,86.0621,VALID,0,VALID,23.2329,VALID,161,VALID,1.05625,
2011-08-04, 03:40:04,VALID,998.761,VALID,0,VALID,85.9095,VALID,0,VALID,23.2524,VALID,161,VALID,0.854297,
2011-08-04, 03:41:04,VALID,998.785,VALID,0,VALID,86.0163,VALID,0,VALID,23.2719,VALID,161,VALID,0.642187,
2011-08-04, 03:42:04,VALID,998.784,VALID,0,VALID,85.8409,VALID,0,VALID,23.311,VALID,161,VALID,0.560156,
2011-08-04, 03:43:04,VALID,998.807,VALID,0,VALID,85.6425,VALID,0,VALID,23.3305,VALID,161,VALID,0.684375,
2011-08-04, 03:44:04,VALID,998.813,VALID,0,VALID,85.673,VALID,0,VALID,23.3713,VALID,161,VALID,0.85625,